Weather observations for the past three days for
Sisseton, Sisseton Municipal Airport
Imperial (Metric)
Date Time (cdt) Wind (mph) Vis. (mi.) Weather Sky Cond. Temperature (ºF) Relative Humidity Wind Chill (°F) Heat Index (°F) Pressure Precipitation (in)
Air Dwpt 6 hour altimeter (in) sea level (mb) 1 hr 3 hr 6 hr
Max. Min.
04 19:56 NW 17 G 25 0.00 NULL NULL 48 26.1 42% 42 29.72 1006.6
04 18:56 NW 18 G 30 0.00 NULL NULL 51.1 25 54 48.9 36% 29.7 1006.0
04 17:56 NW 24 G 31 0.00 Breezy NULL 50 25 38% 43 29.7 1006.1
04 16:56 NW 25 G 37 0.00 Breezy NULL 51.1 24.1 35% 29.7 1005.9
04 15:56 NW 25 G 39 0.00 Breezy NULL 52 23 32% 29.69 1005.5
04 14:56 NW 28 G 43 0.00 Windy NULL 52 23 32% 29.68 1004.6
04 13:56 W 21 G 36 0.00 Breezy NULL 53.1 27 37% 29.67 1004.3
04 12:56 NW 30 G 41 0.00 Windy NULL 48.9 28 52 46.9 44% 41 29.66 1004.2
04 11:56 NW 28 G 38 0.00 Windy NULL 50 28.9 44% 43 29.65 1003.7
04 10:56 N 28 G 36 0.00 Windy NULL 50 30.9 48% 43 29.63 1003.0
04 09:56 NW 23 G 36 0.00 Breezy NULL 48.9 32 52% 42 29.61 1002.5
04 08:56 NW 28 G 40 0.00 Windy NULL 48.9 32 52% 41 29.58 1001.6
04 07:56 NW 21 G 30 0.00 Breezy NULL 51.1 37.9 61% 29.56 1000.3
04 06:56 NW 15 0.00 NULL NULL 51.1 36 63 46.9 56% 29.53 999.2
04 05:56 NW 8 0.00 NULL NULL 48 37 66% 45 29.51 998.6
04 04:56 NW 12 0.00 NULL NULL 48.9 37.9 66% 45 29.5 998.2
04 03:56 NW 15 0.00 NULL NULL 51.1 37.9 61% 29.49 997.9
04 02:56 W 26 G 44 0.00 Windy NULL 63 37 38% 29.43 995.5
04 01:56 SW 28 G 44 0.00 Windy NULL 62.1 35.1 37% 29.4 994.5
04 00:56 SW 23 G 33 0.00 Breezy NULL 61 33.1 70 57 35% 29.45 996.0
03 23:56 SW 21 0.00 Breezy NULL 61 30.9 32% 29.48 997.4
03 22:56 SW 21 G 29 0.00 Breezy NULL 62.1 30 30% 29.51 998.5
03 21:56 SW 13 0.00 NULL NULL 57.9 32 38% 29.55 1000.0
03 20:56 SW 10 0.00 NULL NULL 57.9 33.1 39% 29.58 1001.3
03 19:56 SW 7 0.00 NULL NULL 66 30 26% 29.61 1002.3
03 18:56 W 12 0.00 NULL NULL 70 30 71.1 64.9 23% 29.63 1003.0
03 17:56 W 20 0.00 NULL NULL 71.1 30 22% 29.65 1003.7
03 16:56 W 17 G 24 0.00 NULL NULL 70 32 25% 29.68 1004.7
03 15:56 W 16 G 24 0.00 NULL NULL 70 32 25% 29.72 1005.8
03 14:56 NW 13 G 20 0.00 NULL NULL 69.1 28.9 22% 29.75 1006.8
03 13:56 W 14 G 24 0.00 NULL NULL 68 30 24% 29.78 1008.0
03 12:56 W 12 G 22 0.00 NULL NULL 66 30.9 66 45 27% 29.82 1009.2
03 11:56 N 12 G 20 0.00 NULL NULL 63 30 29% 29.83 1009.6
03 10:56 N 10 0.00 NULL NULL 60.1 32 35% 29.85 1010.1
03 09:56 NW 12 0.00 NULL NULL 57 35.1 44% 29.85 1010.5
03 08:56 NW 15 0.00 NULL NULL 52 32 47% 29.86 1010.8
03 07:56 NW 17 0.00 NULL NULL 48.9 30.9 50% 43 29.85 1010.4
03 06:56 NW 13 0.00 NULL NULL 46 34 52 44.1 63% 41 29.83 1009.8
03 05:56 NW 14 0.00 NULL NULL 44.1 36 73% 38 29.81 1009.0
03 04:56 NW 14 0.00 NULL NULL 45 36 71% 39 29.8 1008.5
03 03:56 NW 17 0.00 NULL NULL 46.9 37 69% 41 29.79 1008.3
03 02:56 NW 17 0.00 NULL NULL 48.9 37 64% 43 29.77 1007.7
03 01:56 NW 13 0.00 NULL NULL 50 36 59% 46 29.77 1007.5
03 00:56 NW 15 0.00 NULL NULL 52 37 68 52 57% 29.75 1006.9
02 23:56 NW 18 0.00 NULL NULL 55.9 37 49% 29.72 1005.8
02 22:56 W 14 0.00 NULL NULL 59 36 42% 29.7 1005.0
02 21:56 W 12 0.00 NULL NULL 57 37 47% 29.7 1005.3
02 20:56 W 7 0.00 NULL NULL 61 37.9 43% 29.69 1004.9
02 19:56 SW 9 0.00 NULL NULL 66 37.9 36% 29.68 1004.7
02 18:56 W 20 G 37 0.00 NULL NULL 68 35.1 72 64.9 30% 29.72 1006.1
02 17:56 SW 20 G 28 0.00 NULL NULL 70 28.9 22% 29.74 1006.8
02 16:56 SW 17 G 28 0.00 NULL NULL 70 25 18% 29.78 1008.1
02 15:56 SW 20 G 28 0.00 NULL NULL 66.9 25 20% 29.82 1009.7
02 14:56 SW 23 G 30 0.00 Breezy NULL 68 28 22% 29.85 1010.7
02 13:56 W 18 G 26 0.00 NULL NULL 66 28.9 25% 29.88 1011.9
02 12:56 W 22 G 32 0.00 Breezy NULL 66 34 66 44.1 30% 29.89 1012.4
02 11:56 W 24 G 38 0.00 Breezy NULL 64 32 30% 29.92 1013.3
02 10:56 W 26 G 36 0.00 Windy NULL 61 32 34% 29.93 1014.1
02 09:56 W 25 G 35 0.00 Breezy NULL 57.9 32 38% 29.95 1014.5
02 08:56 SW 20 G 31 0.00 NULL NULL 53.1 32 45% 29.98 1015.3
02 07:56 SW 17 G 31 0.00 NULL NULL 48.9 28.9 46% 43 29.99 1015.8
02 06:56 SW 14 0.00 NULL NULL 44.1 27 45 34 51% 38 30.01 1016.5
02 05:56 SW 17 G 23 0.00 NULL NULL 44.1 27 51% 37 30.01 1016.6
02 04:56 SW 15 0.00 NULL NULL 44.1 28 53% 38 30.04 1017.5
02 03:56 SW 9 0.00 NULL NULL 42.1 28.9 60% 37 30.05 1018.0
02 02:56 SW 9 0.00 NULL NULL 37 30 76% 31 30.06 1018.8
02 01:56 S 9 0.00 NULL NULL 37 27 67% 31 30.08 1019.5
02 00:56 SW 5 0.00 NULL NULL 35.1 26.1 54 33.1 70% 32 30.08 1019.8
01 23:56 S 7 0.00 NULL NULL 35.1 28 76% 30 30.09 1019.9
01 22:56 SW 5 0.00 NULL NULL 35.1 28 76% 32 30.1 1020.4
01 21:56 Calm 0.00 NULL NULL 42.1 28 58% 30.1 1020.3
01 20:56 NE 3 0.00 NULL NULL 46 23 40% 30.09 1019.8
Date Time (cdt) Wind (mph) Vis. (mi.) Weather Sky Cond. Air Dwpt Max. Min. Relative Humidity Wind Chill (°F) Heat Index (°F) altimeter (in) sea level (mb) 1 hr 3 hr 6 hr
6 hour
Temperature (ºF) Pressure Precipitation (in)